Weather reports worldwide

Advertisment
Arvika, Sweden (2411): temperature & dewpoint: 04.07.2020 12:00:00 - 10.07.2020 12:00:00 (CEST)Arvika, Sweden (2411): wind speed & gusts: 04.07.2020 12:00:00 - 10.07.2020 12:00:00 (CEST)Arvika, Sweden (2411): wind direction: 04.07.2020 12:00:00 - 10.07.2020 12:00:00 (CEST)Arvika, Sweden (2411): reduced air pressure: 04.07.2020 12:00:00 - 10.07.2020 12:00:00 (CEST)Arvika, Sweden (2411): visibility: 04.07.2020 12:00:00 - 10.07.2020 12:00:00 (CEST)Arvika, Sweden (2411): precipitation: 04.07.2020 12:00:00 - 10.07.2020 12:00:00 (CEST)
Date & Time tt [°C] td [°C] ff [km/h] ff [kn] fx [km/h] fx [kn] dd ppp [hPa] vv [km] rr [mm]
10.07.2020 12:00:00 - - - - - - - - - -
10.07.2020 11:00:00 17,9 7,3 8 5 22 12 SE 1008,1 43 0,0
10.07.2020 10:00:00 16,5 7,4 8 5 19 10 SE 1008,5 41 0,0
10.07.2020 09:00:00 14,6 9,0 4 2 15 8 S 1008,7 50 0,0
10.07.2020 08:00:00 12,9 8,8 6 4 13 7 SSE 1008,6 47 0,0
10.07.2020 07:00:00 9,8 9,7 0 0 2 1 N 1008,8 50 0,0
10.07.2020 06:00:00 7,3 7,2 0 0 1 1 N 1009,0 50 0,0
10.07.2020 05:00:00 6,5 6,4 0 0 1 1 N 1009,2 50 0,0
10.07.2020 04:00:00 5,7 5,6 0 0 1 1 N 1009,6 24 0,0
10.07.2020 03:00:00 5,1 4,8 0 0 4 2 N 1009,8 2,2 0,0
10.07.2020 02:00:00 6,3 6,0 0 0 4 2 N 1009,7 42 0,0
10.07.2020 01:00:00 7,8 7,2 0 0 4 2 N 1009,7 15 0,0
10.07.2020 00:00:00 9,7 9,1 0 0 2 1 N 1009,6 40 0,0
09.07.2020 23:00:00 10,9 9,7 0 0 3 2 N 1009,7 50 0,0
09.07.2020 22:00:00 12,7 10,1 0 0 4 2 N 1009,5 50 0,0
09.07.2020 21:00:00 15,5 10,1 0 0 5 3 N 1009,2 50 0,0
09.07.2020 20:00:00 16,3 8,3 0 0 14 8 N 1009,2 50 0,0
09.07.2020 19:00:00 17,7 6,5 4 2 14 8 WSW 1009,2 50 0,0
09.07.2020 18:00:00 17,3 6,5 6 4 19 11 S 1009,4 50 0,0
09.07.2020 17:00:00 16,9 7,5 10 5 26 14 SSW 1009,8 50 0,0
09.07.2020 16:00:00 18,3 6,2 2 1 17 9 ENE 1009,5 50 0,0
09.07.2020 15:00:00 17,4 6,6 10 5 23 12 N 1010,0 50 0,0
09.07.2020 14:00:00 19,0 3,6 6 4 15 8 S 1009,9 46 0,0
09.07.2020 13:00:00 18,7 5,9 10 6 20 11 N 1010,2 39 0,0
09.07.2020 12:00:00 17,5 5,1 6 3 15 8 N 1010,5 41 0,0
09.07.2020 11:00:00 16,4 2,4 6 3 13 7 S 1010,9 46 0,0
09.07.2020 10:00:00 14,9 5,1 6 4 17 9 NNE 1011,1 50 0,0
09.07.2020 09:00:00 14,5 5,6 6 4 18 10 NNE 1010,9 50 0,0
09.07.2020 08:00:00 13,4 7,8 2 1 5 3 SSE 1010,7 43 0,0
09.07.2020 07:00:00 10,9 9,2 3 1 4 2 SE 1010,4 50 0,0
09.07.2020 06:00:00 6,0 5,9 0 0 2 1 N 1010,5 50 0,0
09.07.2020 05:00:00 3,7 3,6 0 0 3 1 N 1010,4 49 0,0
09.07.2020 04:00:00 3,6 3,3 0 0 1 1 N 1009,9 23 0,0
09.07.2020 03:00:00 4,6 4,5 0 0 2 1 N 1009,6 33 0,0
09.07.2020 02:00:00 4,6 4,3 0 0 1 1 N 1009,3 21 0,0
09.07.2020 01:00:00 5,2 4,8 0 0 2 1 N 1009,1 42 0,0
09.07.2020 00:00:00 7,1 6,7 0 0 3 1 N 1008,8 31 0,0
08.07.2020 23:00:00 8,4 7,5 0 0 3 2 N 1008,3 49 0,0
08.07.2020 22:00:00 10,6 8,7 0 0 5 3 N 1007,6 50 0,0
08.07.2020 21:00:00 15,2 7,7 0 0 24 13 N 1006,9 50 0,0
08.07.2020 20:00:00 17,0 5,9 4 2 10 5 NW 1006,5 50 0,0
08.07.2020 19:00:00 15,3 5,5 3 2 18 10 W 1006,3 50 0,0
08.07.2020 18:00:00 16,5 4,8 4 2 24 13 WSW 1006,3 50 0,0
08.07.2020 17:00:00 17,6 4,9 8 4 22 12 NW 1005,9 47 0,0
08.07.2020 16:00:00 16,8 3,1 6 3 31 17 NNW 1005,9 46 0,0
08.07.2020 15:00:00 17,6 4,5 10 5 26 14 NW 1005,5 46 0,0
08.07.2020 14:00:00 15,3 5,5 13 7 22 12 N 1005,4 50 0,0
08.07.2020 13:00:00 15,2 5,7 5 3 25 13 NW 1005,3 48 0,0
08.07.2020 12:00:00 13,7 5,6 13 7 24 13 N 1005,3 48 0,0
08.07.2020 11:00:00 12,6 6,2 12 6 26 14 NNW 1005,1 50 0,0
08.07.2020 10:00:00 12,1 6,6 11 6 27 15 NNW 1005,0 43 0,0
08.07.2020 09:00:00 10,7 7,2 10 5 24 13 NNW 1004,5 50 0,0
08.07.2020 08:00:00 9,4 8,3 8 4 16 9 NW 1004,0 49 0,2
08.07.2020 07:00:00 8,2 7,9 4 2 11 6 WNW 1003,6 50 0,0
08.07.2020 06:00:00 7,2 7,1 3 2 8 4 NNW 1003,6 50 0,0
08.07.2020 05:00:00 6,5 6,4 3 2 10 6 WNW 1003,3 50 0,0
08.07.2020 04:00:00 3,0 2,9 0 0 6 3 N 1003,3 36 0,0
08.07.2020 03:00:00 3,9 3,7 0 0 3 2 N 1003,3 18 0,0
08.07.2020 02:00:00 5,2 5,1 0 0 1 1 N 1003,4 15 0,0
08.07.2020 01:00:00 5,2 5,1 0 0 3 2 N 1003,5 27 0,0
08.07.2020 00:00:00 5,3 5,0 0 0 3 2 N 1003,2 2,4 0,0
07.07.2020 23:00:00 6,1 5,7 0 0 3 1 N 1003,4 6 0,0
07.07.2020 22:00:00 8,0 7,4 0 0 4 2 N 1003,4 36 0,0
07.07.2020 21:00:00 10,5 8,3 0 0 3 1 N 1003,0 48 0,0
07.07.2020 20:00:00 10,1 8,0 0 0 9 5 N 1003,0 50 0,0
07.07.2020 19:00:00 9,4 7,8 6 4 23 13 NNE 1003,3 25 0,5
07.07.2020 18:00:00 11,1 7,4 5 3 22 12 W 1003,7 50 0,3
07.07.2020 17:00:00 10,7 6,4 9 5 26 14 NNW 1003,6 46 0,1
07.07.2020 16:00:00 13,4 6,5 6 3 20 11 N 1002,6 41 0,0
07.07.2020 15:00:00 13,9 6,3 9 5 23 12 NNW 1002,8 44 0,0
07.07.2020 14:00:00 15,8 5,4 5 3 26 14 SSW 1002,5 50 0,0
07.07.2020 13:00:00 15,5 4,8 10 5 24 13 S 1002,6 46 0,0
07.07.2020 12:00:00 16,4 4,7 8 5 26 14 WSW 1003,0 41 0,0
07.07.2020 11:00:00 15,7 3,8 11 6 24 13 S 1003,3 46 0,0
07.07.2020 10:00:00 16,1 6,5 5 3 12 7 SSW 1003,0 49 0,0
07.07.2020 09:00:00 14,7 6,8 4 2 13 7 SW 1003,0 49 0,0
07.07.2020 08:00:00 14,3 7,4 2 1 9 5 SSW 1003,0 47 0,0
07.07.2020 07:00:00 12,9 8,2 0 0 3 2 N 1002,7 50 0,0
07.07.2020 06:00:00 9,0 8,9 0 0 1 1 N 1002,8 49 0,0
07.07.2020 05:00:00 8,2 7,9 0 0 1 1 N 1002,5 35 0,0
07.07.2020 04:00:00 7,9 7,3 0 0 2 1 N 1001,9 28 0,0
07.07.2020 03:00:00 9,1 8,2 0 0 5 3 N 1001,3 49 0,0
07.07.2020 02:00:00 9,2 8,3 0 0 4 2 N 1000,6 50 0,0
07.07.2020 01:00:00 9,9 8,3 0 0 9 5 N 1000,0 50 0,0
07.07.2020 00:00:00 10,5 8,1 3 2 12 7 WNW 999,1 50 0,0
06.07.2020 23:00:00 11,8 7,1 4 2 18 10 NW 998,1 50 0,0
06.07.2020 22:00:00 12,4 7,9 4 2 19 11 NW 996,9 50 0,0
06.07.2020 21:00:00 13,7 8,9 11 6 26 14 NNW 995,5 50 0,0
06.07.2020 20:00:00 13,9 9,9 9 5 24 13 NW 994,2 50 0,0
06.07.2020 19:00:00 13,3 10,3 6 3 26 14 NW 993,1 50 0,1
06.07.2020 18:00:00 13,8 9,8 11 6 23 12 NW 992,0 36 0,0
06.07.2020 17:00:00 14,7 10,5 6 3 21 11 NW 990,8 50 0,8
06.07.2020 16:00:00 15,7 9,6 6 3 14 8 NW 989,7 47 0,0
06.07.2020 15:00:00 16,1 8,6 6 3 23 13 WSW 989,0 31 0,0
06.07.2020 14:00:00 15,9 9,3 7 4 27 14 SSW 988,5 50 0,0
06.07.2020 13:00:00 14,4 9,2 7 4 24 13 SSW 988,3 47 0,0
06.07.2020 12:00:00 12,7 9,9 9 5 31 17 SSW 987,8 9 0,0
06.07.2020 11:00:00 14,5 8,0 13 7 37 20 SW 987,3 44 0,0
06.07.2020 10:00:00 14,5 7,8 13 7 35 19 SSW 986,8 44 0,0
06.07.2020 09:00:00 13,7 7,9 12 6 38 21 SW 986,9 48 0,0
06.07.2020 08:00:00 13,7 7,9 10 6 42 23 SW 986,5 48 0,0
06.07.2020 07:00:00 12,9 8,0 13 7 36 19 SSW 986,5 48 0,0
06.07.2020 06:00:00 12,3 8,2 12 7 39 21 SSW 986,5 46 0,0
06.07.2020 05:00:00 12,2 8,7 9 5 39 21 SSW 986,9 29 0,1
06.07.2020 04:00:00 12,6 8,3 11 6 30 16 SW 987,1 44 0,0
06.07.2020 03:00:00 13,0 7,9 12 7 40 22 SSW 987,4 48 0,0
06.07.2020 02:00:00 13,2 7,8 11 6 40 22 SSW 987,5 49 0,0
06.07.2020 01:00:00 13,9 8,3 15 8 38 21 SW 987,4 41 0,0
06.07.2020 00:00:00 14,5 9,1 15 8 45 25 SSW 987,2 49 0,0
05.07.2020 23:00:00 15,0 10,2 16 8 43 23 SSW 986,6 36 0,0
05.07.2020 22:00:00 15,1 11,1 11 6 35 19 SSW 986,2 28 0,0
05.07.2020 21:00:00 14,6 10,2 11 6 42 23 S 986,1 31 0,0
05.07.2020 20:00:00 14,8 9,8 14 8 39 21 SSW 986,5 19 0,0
05.07.2020 19:00:00 15,1 10,9 14 8 34 19 S 986,5 26 0,0
05.07.2020 18:00:00 15,3 11,5 13 7 47 25 SSW 986,7 19 0,0
05.07.2020 17:00:00 16,6 12,1 14 8 42 23 SSW 986,9 26 0,0
05.07.2020 16:00:00 17,1 14,7 10 5 26 14 SSW 986,5 42 0,1
05.07.2020 15:00:00 16,6 15,5 10 6 22 12 SSW 986,6 20 0,6
05.07.2020 14:00:00 14,3 13,8 15 8 29 16 SE 987,0 8 6,3
05.07.2020 13:00:00 13,7 12,8 17 9 33 18 ESE 988,6 7 2,1
05.07.2020 12:00:00 13,0 12,4 10 5 22 12 ESE 991,0 4,4 4,1
05.07.2020 11:00:00 12,9 12,0 11 6 22 12 ESE 993,7 7 1,3
05.07.2020 10:00:00 13,6 12,5 9 5 22 12 SE 995,5 43 0,5
05.07.2020 09:00:00 13,4 12,0 7 4 15 8 SSE 996,6 20 0,6
05.07.2020 08:00:00 13,7 12,8 5 3 9 5 SE 997,7 50 0,0
05.07.2020 07:00:00 12,7 12,1 4 2 9 5 SE 998,5 41 0,2
05.07.2020 06:00:00 12,2 12,0 0 0 3 2 N 999,4 10 0,0
05.07.2020 05:00:00 10,6 10,4 0 0 4 2 N 999,9 48 0,0
05.07.2020 04:00:00 9,9 9,7 0 0 3 1 N 1000,6 14 0,0
05.07.2020 03:00:00 10,6 10,1 0 0 1 1 N 1001,2 36 0,0
05.07.2020 02:00:00 11,3 10,8 0 0 4 2 N 1001,8 50 0,0
05.07.2020 01:00:00 11,3 10,8 0 0 2 1 N 1001,8 50 0,0
05.07.2020 00:00:00 11,3 10,7 0 0 3 2 N 1001,8 50 0,0
04.07.2020 23:00:00 11,6 10,7 0 0 2 1 N 1001,9 50 0,0
04.07.2020 22:00:00 12,7 11,1 0 0 2 1 N 1001,7 50 0,0
04.07.2020 21:00:00 15,3 9,6 2 1 8 5 S 1001,8 50 0,0
04.07.2020 20:00:00 16,8 7,4 3 1 9 5 SSW 1001,7 50 0,0
04.07.2020 19:00:00 17,6 5,5 4 2 15 8 SSW 1001,9 50 0,0
04.07.2020 18:00:00 17,7 5,9 4 2 14 7 SSE 1001,9 50 0,0
04.07.2020 17:00:00 18,0 6,5 3 2 13 7 N 1002,2 45 0,0
04.07.2020 16:00:00 16,9 6,1 4 2 9 5 WSW 1002,1 49 0,0
04.07.2020 15:00:00 17,2 8,6 5 3 14 8 NE 1002,3 43 0,0
04.07.2020 14:00:00 15,9 7,1 0 0 13 7 N 1002,4 42 0,0
04.07.2020 13:00:00 13,3 7,9 5 3 15 8 N 1002,6 50 0,0
04.07.2020 12:00:00 12,8 8,1 8 5 16 8 N 1002,5 50 0,0

tt = temperature
td = dewpoint
ff = wind speed
fx = gusts
dd = wind direction
ppp = reduced air pressure
vv = visibility
rr = precipitation

Next stations